User: anonymous   Login
Location: Unspecified
(0.0000°N, 0.0000°E)
Time: 21:21:39
(UTC+02:00)
Language:

CZ-4 R/B - Orbit

View from above orbital plane
View from above orbital plane
View from above satellite
View from above satellite

Ground track
Ground track

The orbit data is extracted from the following two-line orbital elements,

1 28059U 03049C   18170.67364684 -.00000011  00000-0  92639-5 0  9998
2 28059  98.5205  68.0437 0049567 204.5645 185.1065 14.52529423777026
Epoch (UTC): 19 June 2018 16:10:03
Eccentricity: 0.0049567
inclination: 98.5205°
perigee height: 682 km
apogee height: 752 km
right ascension of ascending node: 68.0437°
argument of perigee: 204.5645°
revolutions per day: 14.52529423
mean anomaly at epoch: 185.1065°
orbit number at epoch: 77702

The dashed part of the orbit path shows where the satellite is in the earth's shadow,  

DLR